Location: Geelbroek
(52.9503°N, 6.5712°E)
Time: 21:36:27
(UTC+00:00)

Cosmos 372 Rocket - Pass Details

Date: 15 May 2026
Orbit: 734 x 761 km, 74.1° (Epoch: 10 June)

Event Time Altitude Azimuth Distance (km) Brightness Sun altitude
Rises 21:54:59 0° 334° (NNW) 3,197 9.1 -15.1°
Reaches altitude 10° 21:57:21 10° 335° (NNW) 2,265 7.8 -15.3°
Maximum altitude 22:02:30 87° 64° (ENE) 747 3.9 -15.6°
Enters shadow 22:05:26 26° 153° (SSE) 1,430 4.8 -15.7°
